Погода в Грачевке

Россия / Ставропольский край     45°12′23″N   42°24′47″E
темп.,
°C
ветер,
м/с
пор.,
м/с
влажн.,
%
обл.,
%
осадки,
мм/ч
давл.,
гПа
погр.,
м
10 мая, пн
пн1000:00+6з8148898 0.1 1020586
03:00+5з611885 0.1 1021397
06:00+5з6138862 0.0 1021482
09:00+9з8126294 0.3 10211577
12:00+12з10125389 0.3 10192138
15:00+10з91367100 0.9 10191591
18:00+9з7147899 0.6 10191390
21:00+7з81578100 0.6 1019770
11 мая, вт
вт1100:00+6юз51377100 0.0 1017621
03:00+7зюз71462100 0.0 1017954
06:00+7ююз51066100 0.0 1018776
09:00+10ююв3562100 0.1 1017468
12:00+12юв81060100 0.0 10161217
15:00+13юв6761100 0.0 10171463
18:00+11вюв5871100 0.1 1018550
21:00+9в1176100 0.1 101814
12 мая, ср
ср1200:00+9ссв118090 0.1 101719
03:00+7в118598 0.1 101710
06:00+8вюв23815 0.0 101889
09:00+13вюв45625 0.0 1017771
12:00+17вюв455550 0.0 10161382
15:00+19вюв45525 0.0 10161612
18:00+17вюв4767100 0.0 1016290
21:00+13в337810 0.0 101642
13 мая, чт
чт1300:00+11в33835 0.0 101531
03:00+10вюв34884 0.0 101560
06:00+12вюв39875 0.0 1015233
09:00+18вюв696814 0.0 1015668
12:00+22вюв67585 0.0 1014984
15:00+24вюв67555 0.0 10141214
18:00+22вюв596753 0.0 1014345
21:00+17вюв3880100 0.0 1014145
14 мая, пт
пт1400:00+15вюв367699 0.0 101497
03:00+13вюв34820 0.0 101457
06:00+14вюв37850 0.0 1014164
09:00+22юв686425 0.0 1013494
12:00+26юв56515 0.0 1013745
15:00+27вюв56475 0.0 1013944
18:00+24вюв476365 0.0 1012220
21:00+19юв337413 0.0 101318